Location: College Park
(38.9810°N, 76.9370°W)
Time: 04:37:38

Tiangong 2 - Pass Details

Date: 17 March 2018
Orbit: 383 x 388 km, 42.8° (Epoch: 20 March)

Event Time Altitude Azimuth Distance (km) Brightness Sun altitude
Exits shadow 06:05:34 26° 297° (WNW) 801 2.2 -14.5°
Maximum altitude 06:06:55 43° 353° (N) 557 1.8 -14.2°
Drops below altitude 10° 06:09:59 10° 66° (ENE) 1,412 5.2 -13.6°
Sets 06:12:07 0° 74° (ENE) 2,268 6.9 -13.2°
